• Join FlightAware (Why Join?)
  • Login
  • US Flag 
10:39AM EDT


 

Airport Tracker/Info


-or-


 

Live Flight TrackerFlight Track Log ✈ ASQ5874 ✈ 15-Jun-2013 ✈ KLNK - KORD

Flight Track Log - Related Links

Times and Time Zones

All times are in EDT time to prevent confusion due to time zone crossing. See the ASQ5874 flight status page for this flight to view local times or setup timezone preferences in your user account.

Time Position Orientation Groundspeed Altitude Reporting Facility
EDT Latitude Longitude Course Direction KTS MPH feet Rate Location/Type
11:02AM 40.9017 -96.7589 10° North 221 254 3,400  Level Minneapolis Center
11:03AM 40.9325 -96.7347 31° Northeast 226 260 4,200 1,440 Climbing Minneapolis Center
11:03AM 40.9386 -96.6778 82° East 274 315 4,900 1,020 Climbing Minneapolis Center
11:04AM 40.9606 -96.6400 52° Northeast 266 306 5,300 1,560 Climbing Minneapolis Center
11:04AM 40.9700 -96.5753 79° East 305 351 6,500 1,980 Climbing Minneapolis Center
11:05AM 41.1430 -96.3495 44° Northeast  Level FlightAware Approximate
11:05AM 40.9886 -96.5339 59° Northeast 296 341 7,400  Level Minneapolis Center
11:06AM 41.2187 -96.2523 44° Northeast  Level FlightAware Approximate
11:06AM 41.0242 -96.4069 70° East 306 352 9,700  Level Minneapolis Center
11:07AM 41.2909 -96.1504 47° Northeast  Level FlightAware Approximate
11:07AM 41.0539 -96.2983 70° East 312 359 11,500  Level Minneapolis Center
11:08AM 41.0844 -96.1825 71° East 327 376 12,900 1,560 Climbing Minneapolis Center
11:09AM 41.1169 -96.0642 70° East 341 392 14,800 1,740 Climbing Minneapolis Center
11:10AM 41.1417 -95.9458 74° East 340 391 16,600 1,680 Climbing Minneapolis Center
11:11AM 41.1561 -95.8025 82° East 343 395 18,300 1,320 Climbing Minneapolis Center
11:12AM 41.1722 -95.6753 80° East 348 400 19,400 1,020 Climbing Minneapolis Center
11:13AM 41.1997 -95.5436 74° East 360 414 20,500 1,020 Climbing Minneapolis Center
11:14AM 41.2361 -95.4114 70° East 380 437 21,600 960 Climbing Minneapolis Center
11:15AM 41.2731 -95.2756 70° East 391 450 22,600 960 Climbing Minneapolis Center
11:16AM 41.3108 -95.1356 70° East 400 460 23,700 1,080 Climbing Minneapolis Center
11:17AM 41.3556 -94.9667 71° East 404 465 24,900 1,080 Climbing Minneapolis Center
11:18AM 41.3931 -94.8242 71° East 407 468 26,000 1,140 Climbing Minneapolis Center
11:19AM 41.4319 -94.6836 70° East 405 466 27,300 1,140 Climbing Minneapolis Center
11:20AM 41.4697 -94.5447 70° East 399 459 28,400 780 Climbing Minneapolis Center
11:21AM 41.5061 -94.4017 71° East 405 466 29,000 240 Climbing Minneapolis Center
11:22AM 41.5461 -94.2494 71° East 429 494 29,000  Level Minneapolis Center
11:23AM 41.5900 -94.0772 71° East 453 521 29,000 360 Level Minneapolis Center
11:24AM 41.6325 -93.9122 71° East 466 536 29,800 960 Climbing Minneapolis Center
11:25AM 41.6753 -93.7503 70° East 467 537 31,100 1,260 Climbing Minneapolis Center
11:26AM 41.7144 -93.5936 71° East 451 519 32,400 900 Climbing Minneapolis Center
11:27AM 41.7622 -93.4053 71° East 447 514 33,000 420 Climbing Minneapolis Center
11:29AM 41.8039 -93.2394 71° East 462 532 33,300 840 Climbing Minneapolis Center
11:30AM 41.8456 -93.0744 71° East 470 541 34,800 1,440 Climbing Minneapolis Center
11:31AM 41.8842 -92.9153 72° East 460 529 36,300 1,260 Climbing Minneapolis Center
11:31AM 41.9069 -92.8239 71° East 437 503 36,800 420 Climbing Chicago Center
11:32AM 41.9431 -92.6708 72° East 434 499 37,000 60 Climbing Chicago Center
11:33AM 41.9825 -92.5097 72° East 451 519 37,000  Level Chicago Center
11:34AM 42.0236 -92.3428 72° East 469 540 37,000  Level Chicago Center
11:35AM 42.0647 -92.1711 72° East 482 555 37,000  Level Chicago Center
11:36AM 42.1058 -91.9964 72° East 495 570 37,000  Level Chicago Center
11:37AM 42.1550 -91.7850 73° East 498 573 37,000  Level Chicago Center
11:38AM 42.1956 -91.6119 72° East 494 568 37,000  Level Chicago Center
11:39AM 42.2353 -91.4408 73° East 490 564 37,000 -720 Level Chicago Center
11:40AM 42.2747 -91.2678 73° East 490 564 35,600 -1,440 Descending Chicago Center
11:41AM 42.3144 -91.0961 73° East 487 560 34,100 -1,320 Descending Chicago Center
11:42AM 42.3600 -90.8922 73° East 482 555 33,000 -600 Descending Chicago Center
11:43AM 42.3964 -90.7250 74° East 473 544 32,900 -360 Descending Chicago Center
11:44AM 42.4250 -90.5483 78° East 489 563 32,300 -540 Descending Chicago Center
11:45AM 42.4961 -90.3978 57° Northeast 483 556 31,900 -1,080 Descending Chicago Center
11:46AM 42.5739 -90.2583 53° Northeast 475 547 30,100 -2,280 Descending Chicago Center
11:48AM 42.7039 -90.1347 35° Northeast 480 552 27,200 -2,160 Descending Chicago Center
11:49AM 42.7786 -90.0039 52° Northeast 455 524 25,700 -1,080 Descending Chicago Center
11:50AM 42.7703 -89.8542 94° East 396 456 25,000 -720 Descending Chicago Center
11:51AM 42.7306 -89.7122 111° Southeast 400 460 24,300 -660 Descending Chicago Center
11:52AM 42.6814 -89.5825 117° Southeast 389 448 23,700 -1,260 Descending Chicago Center
11:53AM 42.5819 -89.4886 145° Southeast 375 432 21,800 -2,160 Descending Chicago Center
11:54AM 42.4947 -89.4139 148° Southeast 371 427 19,300 -2,460 Descending Chicago Center
11:55AM 42.4314 -89.3142 131° Southeast 374 430 16,800 -2,220 Descending Chicago Center
11:56AM 42.4206 -89.1672 96° East 393 452 14,800 -1,860 Descending Chicago Center
11:57AM 42.4103 -89.0186 95° East 399 459 13,000 -1,560 Descending Chicago Center
11:58AM 42.4011 -88.8811 95° East 375 432 11,700 -1,260 Descending Chicago Center
11:59AM 42.3903 -88.7194 95° East 372 428 10,500 -840 Descending Chicago Center
12:00PM 42.3806 -88.5844 96° East 366 421 10,000 -300 Descending Chicago Center
12:01PM 42.3617 -88.4511 101° East 365 420 10,000  Level Chicago Center
12:02PM 42.3075 -88.3319 122° Southeast 364 419 10,000  Level Chicago Center
12:03PM 42.2414 -88.2231 129° Southeast 374 430 10,000 -60 Level Chicago Center
12:04PM 42.1789 -88.1253 131° Southeast 350 403 9,900 -840 Descending Chicago Center
12:05PM 42.1000 -88.0333 139° Southeast 304 350 8,200 -1,320 Descending Chicago TRACON
12:06PM 42.1000 -87.9333 90° East 282 325 7,100 -600 Descending Chicago TRACON
12:07PM 42.0833 -87.8167 101° East 284 327 7,000 -660 Descending Chicago TRACON
12:08PM 42.0833 -87.7167 90° East 261 300 5,800 -1,080 Descending Chicago TRACON
12:09PM 42.0833 -87.6333 90° East 252 290 5,000 -900 Descending Chicago TRACON
12:10PM 42.0833 -87.5500 90° East 234 269 4,100 -540 Descending Chicago TRACON
12:11PM 42.0833 -87.4667 90° East 243 280 4,000 -120 Descending Chicago TRACON
12:11PM 42.0914 -87.4603 30° Northeast 236 272 4,000  Level Chicago Center
12:12PM 42.0519 -87.4122 138° Southeast 234 269 4,000  Level Chicago Center
12:13PM 42.0147 -87.4814 234° Southwest 214 246 4,000  Level Chicago Center
12:14PM 42.0031 -87.5581 258° West 210 242 4,000  Level Chicago Center
12:15PM 42.0025 -87.6267 269° West 198 228 4,000  Level Chicago Center